Theta_e
321 320 321 320 320 321 321 321 321 321 321 321 321 321 320 320 319 319 319 319 319 318 317 317 318 320 322 324 325 326 327 327 327 327 327 327 327 327 326 325 325 323
320 320 320 320 320 319 319 319 319 320 320 321 321 322 321 321 321 320 320 320 320 320 320 320 319 320 321 322 322 324 324 324 324 324 325 325 325 325 325 325 325 325
320 320 320 320 320 320 319 318 318 319 319 320 321 321 322 323 322 321 321 321 321 321 321 322 322 322 322 322 322 323 323 323 323 323 323 324 323 323 323 323 324 325
319 319 320 320 319 320 319 318 318 319 319 319 320 320 321 322 322 322 321 322 322 322 322 323 323 323 323 323 323 324 324 324 323 323 324 324 322 322 323 323 323 323
318 318 319 319 319 319 319 319 319 319 319 318 319 319 319 320 321 320 321 321 322 323 323 323 324 324 324 324 324 324 324 324 324 324 324 324 323 323 323 323 323 322
318 319 319 319 319 319 318 319 319 318 318 318 318 319 319 319 319 319 320 321 322 322 323 324 324 325 325 324 324 324 325 325 324 324 325 324 323 323 323 323 322 322
319 319 319 319 318 318 318 317 318 318 318 318 318 318 319 320 320 320 319 321 322 323 323 323 324 325 325 324 324 325 325 325 324 324 324 324 323 323 323 323 322 322
319 319 319 318 318 317 317 317 317 317 318 318 318 318 319 321 323 322 320 320 322 323 323 323 323 324 325 325 325 325 324 325 324 324 324 324 324 324 323 323 323 322
319 318 318 317 317 317 317 316 316 316 317 317 318 318 319 320 322 322 322 320 321 323 323 322 322 323 324 324 324 325 325 324 324 324 324 324 324 324 323 323 323 322
317 317 317 316 317 316 316 316 315 315 316 316 316 317 318 320 320 321 321 320 320 322 322 321 321 321 322 323 324 324 324 324 324 325 324 324 324 323 323 323 323 322
316 315 315 315 315 315 315 315 315 315 315 315 316 316 317 319 319 319 319 319 319 320 320 320 320 321 322 323 323 323 323 324 325 325 325 324 324 323 323 322 322 322
314 313 313 313 314 314 314 315 315 315 315 315 315 316 316 317 318 318 318 319 319 320 320 320 321 322 323 324 324 324 324 325 325 325 324 324 323 323 323 323 322 321
313 313 313 312 312 313 313 313 314 314 314 314 314 314 315 315 316 316 317 318 319 321 321 322 322 323 324 324 324 324 324 325 324 324 324 323 323 322 321 321 320 320
313 313 313 313 312 312 312 311 312 312 312 312 312 312 312 313 313 314 315 317 318 320 321 322 323 324 324 324 324 324 324 324 324 323 323 323 323 322 321 321 320 319
313 313 312 312 312 311 311 311 311 311 311 311 311 311 311 311 311 311 312 314 315 316 318 320 322 323 323 323 324 324 324 323 323 323 322 322 322 323 323 323 321 319
317 316 315 313 312 312 311 311 310 310 310 310 311 311 311 311 310 310 310 311 312 313 314 317 318 319 319 321 322 322 323 323 323 323 322 323 323 322 322 322 320 320
319 319 318 316 314 312 311 311 310 310 310 310 311 311 311 311 310 310 310 310 310 310 311 313 314 314 315 317 319 321 322 322 322 323 323 322 322 321 321 321 318 318
319 319 320 319 316 314 312 311 310 310 310 310 311 312 312 312 312 312 311 310 309 309 309 310 310 311 313 314 316 318 320 321 322 322 322 322 322 322 321 320 319 318
319 319 319 320 319 316 314 312 311 310 310 310 311 311 312 313 314 313 311 310 310 309 310 310 309 309 310 311 313 316 318 320 321 321 322 322 321 322 320 319 321 321
318 319 319 319 319 319 317 315 314 312 311 310 310 311 312 313 314 313 311 310 310 310 310 310 309 309 309 309 312 315 317 319 320 321 322 321 321 322 320 317 318 320
318 318 318 319 319 319 319 318 317 316 313 311 311 311 312 313 314 314 313 311 310 310 310 310 310 309 309 309 311 314 317 318 319 320 320 321 322 323 319 315 317 320
318 318 318 318 318 318 318 318 318 318 317 314 312 311 311 312 314 315 314 311 310 310 310 310 310 309 309 309 310 313 317 319 319 320 320 320 319 319 318 318 320 322
316 317 318 318 318 318 318 318 318 319 319 317 314 312 310 311 312 314 313 312 310 310 310 310 310 310 309 309 309 311 314 317 318 319 320 318 316 317 320 321 321 322
314 315 316 318 318 318 318 318 318 319 319 319 317 314 311 310 311 312 313 312 311 311 311 311 310 310 309 309 309 309 310 312 313 313 314 316 317 319 321 321 320 320
312 313 314 315 316 317 318 318 318 318 318 319 318 316 312 310 310 311 312 313 312 311 311 311 311 310 310 309 309 309 308 309 310 311 312 315 317 318 319 319 318 316
312 312 312 312 313 314 315 316 317 318 318 318 318 318 315 311 310 310 311 312 312 312 311 311 311 311 310 310 309 309 309 308 309 311 312 312 312 314 314 313 313 315
Wind_Speed
34 33 34 37 40 43 45 47 48 49 50 49 48 47 46 44 43 43 42 41 39 40 40 41 43 43 44 44 44 44 43 41 41 40 39 39 40 40 41 40 40 42
31 30 30 33 36 38 41 44 45 46 48 49 49 48 47 47 46 46 45 42 40 39 38 39 40 41 42 42 40 40 41 41 42 42 41 41 42 42 41 40 39 38
34 34 33 34 35 35 36 39 41 43 44 46 48 48 47 46 46 47 46 44 43 41 40 39 39 39 40 39 37 37 38 40 41 42 42 43 44 44 43 42 41 39
40 39 36 34 32 32 33 35 37 39 41 42 44 45 45 44 45 47 46 45 44 43 42 41 39 39 39 39 38 38 38 39 40 41 41 43 43 44 43 43 42 42
37 35 33 31 29 29 31 33 34 36 38 40 40 41 42 42 44 45 45 44 44 44 43 42 40 39 39 40 40 40 39 39 40 41 42 43 43 43 43 42 43 43
27 27 28 29 29 30 31 32 33 35 37 38 38 39 40 41 42 42 42 42 43 44 44 43 41 40 40 41 40 40 39 39 41 41 43 44 43 43 42 42 43 43
24 25 27 30 31 32 32 33 33 34 36 37 38 37 38 39 40 41 41 41 42 43 43 43 41 41 41 41 39 39 39 40 41 42 43 44 43 43 42 43 43 43
27 29 30 32 33 32 32 32 32 32 33 35 36 36 36 35 35 37 39 39 40 41 41 41 40 40 40 40 39 39 39 40 41 42 43 43 43 44 44 44 44 43
29 30 31 31 32 32 31 31 30 30 31 33 34 34 35 35 34 34 36 38 39 39 39 40 38 38 38 38 38 39 39 40 41 42 42 43 44 45 44 44 44 44
29 28 29 29 30 31 31 30 29 29 30 31 33 33 34 35 34 35 36 37 38 38 38 39 38 37 37 37 38 39 39 40 40 41 43 43 44 44 43 43 43 44
27 27 27 28 29 29 29 28 28 28 28 29 30 31 33 33 34 35 36 36 37 37 37 38 37 37 37 37 38 39 39 40 40 41 42 43 42 42 41 41 41 42
25 26 27 27 27 27 27 27 27 27 27 28 28 29 31 32 33 35 35 35 36 36 36 37 37 37 38 37 38 39 40 40 40 40 41 41 40 39 39 39 39 38
26 26 27 27 28 28 27 27 27 27 27 28 28 29 30 30 32 34 34 35 36 36 36 37 37 38 38 37 38 39 39 39 38 38 38 37 37 37 38 38 37 35
27 27 28 28 29 29 29 29 28 28 28 28 29 30 30 30 32 33 34 34 35 36 36 37 37 38 38 38 38 38 38 37 36 35 36 36 36 37 37 37 36 35
26 28 28 29 30 30 31 31 30 29 29 28 28 28 29 30 31 32 33 34 36 37 37 37 37 38 38 38 38 37 36 36 35 35 35 35 36 37 38 38 38 36
26 26 27 28 29 30 31 32 32 31 30 28 27 26 27 28 30 32 33 34 36 37 38 39 39 39 39 38 38 37 35 35 34 35 35 35 37 38 39 40 39 38
29 28 27 27 27 28 30 31 32 32 31 29 27 25 25 26 29 31 32 33 35 37 38 40 41 41 40 39 38 37 36 35 35 35 36 37 38 38 39 40 38 38
31 30 29 27 25 26 27 29 30 32 33 32 28 25 24 26 28 29 31 33 34 36 37 39 40 41 41 40 40 39 37 36 36 37 37 38 39 39 41 40 36 34
33 32 30 28 26 25 25 27 28 29 32 33 31 28 25 25 26 29 32 33 34 35 36 38 39 39 39 40 40 40 38 37 37 37 38 40 40 40 40 39 37 35
33 33 32 30 28 26 26 26 26 27 29 31 32 30 27 25 26 29 32 33 33 34 35 37 38 38 38 39 40 39 38 37 37 37 39 40 40 39 38 37 37 37
33 34 33 31 30 29 29 28 26 26 26 28 30 31 29 26 25 27 31 32 33 33 34 35 36 36 37 38 38 37 36 36 37 38 40 41 40 40 39 37 36 38
32 33 34 33 32 32 31 30 29 27 26 26 28 31 31 30 27 26 29 32 32 31 31 32 32 33 35 36 36 35 35 35 36 37 39 41 41 40 39 38 39 39
31 32 34 34 34 34 34 32 31 32 31 29 29 30 32 33 30 28 29 32 32 31 31 30 29 29 31 32 33 33 34 35 37 38 40 40 39 38 38 38 39 38
30 32 34 35 35 36 36 35 34 34 35 34 33 32 32 33 33 32 31 32 33 33 32 31 29 27 27 29 30 30 32 34 36 38 39 38 38 38 38 38 38 38
27 30 32 34 34 35 36 35 35 36 36 37 37 35 34 34 35 35 34 33 35 36 35 34 31 28 27 27 27 28 30 32 33 35 37 38 40 41 42 42 41 38
25 27 29 31 33 34 34 35 36 36 37 38 39 39 37 36 36 37 37 37 37 38 39 37 35 32 30 28 28 28 29 30 32 34 36 37 39 41 42 42 40 37
Wind_Direction
255 256 258 260 260 260 258 258 257 256 257 257 257 257 259 260 261 261 261 260 259 259 259 258 258 256 254 253 252 250 250 251 251 252 249 250 251 251 250 251 250 249
254 259 266 268 267 266 263 260 258 258 258 259 258 258 258 258 259 260 260 261 260 260 260 259 259 258 256 254 251 248 249 251 251 251 249 249 250 250 251 251 250 249
257 264 272 276 275 273 269 264 260 259 259 260 260 259 258 257 257 259 260 261 261 260 260 260 260 259 256 255 253 249 250 252 252 251 250 251 252 252 252 252 250 249
262 267 273 277 277 275 273 268 263 261 262 262 262 262 261 259 259 261 261 261 262 261 260 259 259 258 256 257 257 254 252 253 253 252 251 251 253 253 253 253 252 252
266 266 268 272 275 275 273 270 267 264 264 263 263 263 263 262 262 263 262 261 261 260 260 259 258 257 256 257 257 255 254 254 253 252 252 252 253 253 253 253 254 254
266 264 266 271 274 274 272 271 269 267 265 264 264 262 263 263 263 263 261 260 260 259 259 258 257 256 255 255 254 253 254 254 253 253 252 253 253 253 253 253 253 253
267 271 273 275 276 274 273 272 271 270 268 266 265 263 263 263 263 262 260 259 258 258 257 257 255 254 254 255 254 252 253 254 254 253 253 254 254 254 253 253 253 253
271 276 278 278 277 276 275 275 275 275 272 270 267 266 264 261 259 260 260 258 255 255 256 256 254 253 253 253 253 252 253 254 254 254 254 254 254 254 253 252 253 254
273 276 277 278 278 277 277 277 277 277 274 271 270 268 265 261 259 259 260 259 255 254 256 256 255 255 254 253 252 253 253 254 254 254 254 254 254 253 252 252 253 254
276 276 275 275 275 276 277 277 277 276 275 273 271 269 266 263 263 261 260 260 258 255 256 256 256 256 255 253 253 254 254 254 254 254 254 253 253 252 252 252 253 254
279 278 276 274 275 276 276 277 276 275 275 274 273 271 266 263 264 264 263 262 261 259 258 258 258 257 256 255 255 255 256 256 255 255 254 253 252 252 253 254 254 254
282 279 279 278 276 276 276 275 275 274 275 274 274 273 268 265 266 267 265 264 262 260 259 259 259 259 257 256 255 255 256 257 257 256 255 253 253 254 255 256 256 255
286 285 284 282 280 278 277 275 274 274 275 275 274 274 272 269 268 268 265 263 262 260 259 259 259 259 258 257 256 257 258 259 259 259 258 257 256 256 256 257 256 255
287 288 288 287 285 282 278 276 274 274 275 275 275 277 277 274 271 270 268 265 264 262 261 260 259 259 260 260 260 260 260 261 260 259 258 258 258 259 259 260 259 257
296 293 292 291 289 285 281 277 274 273 273 274 276 280 282 281 278 274 271 269 267 265 263 262 260 259 259 260 260 260 260 261 261 260 259 258 257 258 259 259 260 258
311 307 303 298 293 287 284 279 275 272 271 271 274 279 283 284 282 278 274 272 270 268 266 264 262 260 259 258 258 258 258 258 258 258 258 256 256 255 254 255 256 255
309 310 310 308 302 293 287 283 280 276 273 271 270 275 280 283 283 282 280 277 273 270 268 266 265 263 262 259 258 256 254 253 253 253 254 254 254 253 252 253 254 251
300 301 303 307 306 300 293 288 285 282 277 273 269 271 277 280 284 286 284 280 276 272 270 268 267 266 263 261 259 256 252 250 249 250 250 252 253 253 251 251 253 252
295 294 294 296 299 300 297 293 291 288 283 278 274 271 272 278 285 288 286 283 279 275 273 271 269 267 264 262 260 256 252 249 247 248 248 250 250 251 251 251 251 252
296 293 289 287 286 287 289 290 291 289 286 282 278 273 272 278 286 288 286 284 281 278 276 273 271 269 266 263 259 256 252 248 245 245 247 249 251 252 252 250 247 248
298 295 291 288 282 278 276 278 280 282 281 279 276 272 271 275 283 288 287 284 281 279 277 274 273 271 267 263 259 255 252 248 246 245 245 248 251 251 249 246 244 247
296 293 292 291 288 282 277 274 274 276 277 277 274 271 270 271 276 284 286 282 279 277 275 275 275 272 269 265 260 255 250 247 247 246 247 249 248 246 246 247 248 250
293 289 287 287 287 286 283 280 276 274 274 277 276 272 271 270 272 278 280 278 275 273 273 274 274 272 270 266 260 255 248 245 244 244 246 247 246 247 249 250 250 250
295 290 286 283 281 282 283 283 281 275 273 273 274 272 270 268 269 272 274 275 273 270 270 271 272 271 269 265 261 256 250 246 244 243 243 243 245 247 249 248 249 251
305 298 292 287 282 279 278 278 277 276 273 272 272 272 270 267 267 268 269 271 271 269 267 268 269 268 265 262 260 256 252 249 246 244 243 242 244 245 246 247 249 249
317 309 302 296 290 285 280 275 271 270 269 269 269 270 269 267 266 266 267 268 268 267 266 266 267 267 264 260 256 253 252 250 247 245 244 244 244 243 244 245 244 241